Wind_Speed
24 23 25 24 20 17 18 22 24 25 24 22 19 16 15 16 16 17 17 17 16 16 15 15 15 14 14 15 15 15 15 15 16 18 19 18 16 15 14 14 14 16 16 16 16 18 18 17 18
25 24 24 25 21 18 21 24 24 21 21 20 18 15 15 17 19 19 18 16 14 14 12 11 12 13 14 15 15 14 13 13 14 17 20 19 17 15 16 17 16 18 18 18 17 17 18 19 19
26 25 25 25 23 22 24 25 22 18 18 19 17 14 15 18 20 21 18 17 14 11 9 10 12 13 14 15 15 14 12 12 14 17 20 20 19 18 18 18 18 20 21 21 19 19 19 21 20
27 25 25 25 24 25 26 25 21 18 18 18 15 14 16 19 20 20 18 17 13 11 11 11 12 13 15 16 16 16 14 12 12 16 19 20 20 20 20 20 21 21 22 23 21 20 19 20 20
29 27 26 26 25 27 29 27 22 20 18 17 14 13 19 22 21 17 16 16 13 12 12 12 13 13 14 16 17 17 16 15 14 14 17 20 21 21 23 23 24 23 22 21 21 20 19 20 20
31 29 28 27 27 28 31 29 24 21 19 16 15 13 19 24 23 19 16 15 12 11 12 13 13 13 14 16 17 18 18 18 18 17 17 18 20 22 24 25 24 23 21 20 20 20 20 21 22
34 32 30 29 30 31 31 29 25 22 21 18 16 16 19 21 23 20 16 15 13 12 13 13 13 14 14 16 17 18 19 20 22 22 21 21 23 23 23 24 24 24 23 21 22 22 24 26 27
36 35 33 30 31 34 32 28 26 24 23 19 17 18 16 14 18 19 16 15 14 14 14 13 14 14 13 14 16 18 19 21 23 25 26 26 26 26 25 25 25 25 25 25 26 28 30 32 33
40 37 33 31 32 35 33 27 25 23 23 19 17 17 15 12 14 17 18 16 15 15 14 13 12 11 12 12 15 17 19 21 23 25 28 29 29 28 27 27 28 28 29 30 31 32 35 37 38
43 38 31 32 35 36 33 27 23 24 23 20 17 17 17 15 15 16 17 16 17 16 15 13 10 10 11 13 15 18 20 22 24 25 26 28 28 28 28 28 29 29 30 33 35 37 38 40 42
46 37 33 35 38 35 33 29 22 23 22 20 18 19 19 19 18 19 19 18 19 19 17 13 12 13 14 17 19 21 23 23 23 24 24 24 24 25 26 26 28 30 32 36 38 40 41 44 46
46 38 36 37 39 35 33 30 24 21 22 22 21 23 24 21 21 21 21 21 22 21 18 16 15 15 16 19 22 24 26 26 23 21 21 20 21 21 24 26 28 31 34 38 41 43 44 46 46
45 39 38 39 40 36 32 30 26 21 26 24 22 24 27 23 21 22 22 22 23 22 20 19 20 20 19 19 21 24 26 26 23 21 22 23 23 25 28 30 33 35 36 39 40 40 40 38 38
45 41 41 43 41 36 31 29 25 30 28 23 22 22 25 24 22 22 24 24 24 23 22 21 22 25 26 24 25 26 28 27 25 24 25 27 28 30 32 34 36 36 35 35 35 35 35 36 36
49 46 45 44 41 37 33 29 29 33 26 24 22 22 24 25 23 23 24 24 22 22 22 23 24 25 25 25 25 27 29 29 28 28 29 30 33 34 35 36 35 35 34 34 34 34 35 36 38
53 50 47 42 40 37 35 30 33 30 28 23 23 21 23 26 25 25 24 23 21 21 23 24 25 26 27 26 25 27 27 28 30 32 34 35 37 37 37 36 35 34 35 35 36 38 39 41 42
57 53 46 40 39 39 36 32 34 29 28 24 22 20 24 27 28 26 23 23 22 22 23 24 26 27 29 29 27 27 28 28 31 35 37 38 38 37 35 35 34 35 37 38 40 42 44 46 47
60 54 44 38 38 38 37 32 32 28 26 23 21 22 25 28 28 26 24 24 24 25 26 27 27 27 28 28 26 27 30 30 32 35 35 35 35 35 35 35 36 38 40 42 44 46 48 50 50
55 47 41 37 39 37 36 30 31 31 26 24 23 23 27 30 28 26 25 26 27 29 30 28 25 25 27 27 27 29 31 32 33 33 32 33 34 35 37 39 40 42 44 46 48 48 48 49 51
52 47 42 40 37 34 34 29 33 33 27 26 26 26 29 29 28 26 26 27 29 30 30 25 23 24 26 27 28 29 31 33 34 33 34 35 37 38 40 41 42 44 46 47 47 48 49 50 53
52 47 42 37 34 33 31 28 31 32 29 29 28 28 28 27 25 24 25 27 28 27 24 24 24 25 27 27 29 29 31 31 33 34 36 38 38 39 40 42 44 44 45 46 48 49 52 54 58
48 46 42 36 34 32 30 26 29 31 30 30 29 29 29 28 25 24 26 27 26 25 25 26 28 28 27 28 30 32 32 33 34 36 37 38 39 41 42 43 44 45 47 49 52 55 58 61 65
46 46 41 35 34 30 27 23 25 32 30 30 30 30 30 29 27 26 26 25 25 26 27 28 29 29 29 31 33 34 34 35 36 36 37 38 39 41 43 45 46 49 51 54 58 62 66 69 72
48 46 40 34 32 28 25 23 24 30 30 30 31 31 31 30 30 30 27 26 26 26 27 29 30 30 31 33 33 34 35 36 36 37 38 39 41 43 46 48 51 54 56 60 64 67 70 72 75
48 43 36 33 31 27 25 25 23 29 30 31 31 32 32 31 31 31 30 29 27 27 28 29 31 32 33 33 33 34 35 36 37 38 40 42 44 46 50 53 55 58 60 63 66 68 71 75 79
48 41 36 34 29 25 26 25 23 26 29 30 31 30 30 32 32 33 31 30 28 28 29 30 31 33 34 33 33 34 35 36 37 39 41 44 48 51 53 56 59 61 63 65 68 72 76 80 83
44 41 37 32 27 26 24 24 21 23 26 28 27 27 28 29 31 32 32 30 29 29 30 30 31 33 33 33 33 34 35 36 38 42 45 49 51 53 57 60 62 64 66 69 73 77 80 83 87
36 36 35 33 28 26 23 23 22 21 23 24 23 24 26 28 30 32 31 30 31 31 30 29 30 32 32 32 34 35 37 40 44 47 49 52 55 59 62 64 66 68 71 74 78 81 84 88 91
41 38 36 32 30 27 22 22 22 21 20 21 22 24 27 29 32 32 30 31 30 29 28 28 30 31 32 34 36 38 41 45 48 50 53 57 61 64 66 67 69 72 76 79 81 85 88 92 94
38 39 35 33 32 28 24 20 21 22 21 21 23 25 27 29 30 29 27 27 27 27 29 30 31 32 34 36 39 42 45 49 52 55 58 61 64 67 68 71 74 77 80 83 86 89 92 94 96
Wind_Direction
248 240 243 247 245 237 234 237 238 239 242 247 250 248 243 239 240 247 251 257 263 269 274 284 287 284 278 280 278 276 268 262 261 254 249 247 248 251 255 256 257 259 264 268 275 282 286 287 291
251 242 238 242 240 231 228 231 237 242 248 250 248 242 238 236 235 239 248 255 264 273 277 290 289 282 275 276 277 281 285 274 260 247 241 244 249 255 262 267 267 268 267 265 270 279 285 282 284
249 244 237 237 235 228 228 232 236 242 247 248 248 246 240 238 235 238 244 250 260 268 273 289 288 283 278 282 283 283 289 285 258 241 239 244 251 259 265 269 273 272 268 266 269 274 283 284 283
246 245 239 235 231 228 231 236 238 242 245 250 255 256 244 239 236 238 244 250 252 260 271 285 285 283 282 288 287 283 284 284 270 248 243 248 255 260 264 270 275 276 275 273 274 277 284 285 284
246 244 241 235 233 230 232 233 237 243 246 251 260 261 242 234 234 237 250 253 250 258 271 276 281 284 284 286 285 281 283 283 276 263 254 255 261 264 268 272 276 279 278 276 276 277 280 280 283
245 242 241 236 234 232 233 232 232 240 244 250 264 259 242 234 229 236 254 253 247 256 265 272 283 286 289 291 291 285 280 281 279 273 268 268 271 273 275 275 276 278 277 276 276 277 279 278 280
241 240 238 235 234 234 234 232 227 232 242 247 257 252 240 236 232 236 250 249 244 255 265 275 286 290 292 293 294 291 284 280 279 277 274 273 274 277 278 277 276 275 273 272 274 277 278 278 280
238 238 236 235 235 236 235 232 226 227 236 246 255 250 236 231 230 232 240 239 243 258 268 277 282 290 296 299 299 294 289 283 278 276 275 273 272 274 276 277 276 275 276 277 278 279 281 283 285
236 236 234 234 236 238 237 234 227 226 233 242 250 241 219 216 221 229 236 238 243 254 261 269 282 292 293 303 310 307 298 290 285 281 277 275 276 276 278 279 278 277 278 280 281 282 283 285 286
234 234 233 233 237 237 238 236 227 225 231 238 236 223 215 216 221 230 238 241 245 249 252 261 275 288 302 312 315 313 309 301 292 286 281 278 277 279 280 281 281 280 280 280 280 280 281 283 284
232 231 232 232 236 236 238 235 227 225 228 233 226 218 219 218 220 226 233 238 243 245 248 258 269 275 290 302 310 316 315 309 300 292 288 284 282 282 283 283 282 281 280 279 279 279 280 282 285
229 227 228 231 235 235 237 234 228 227 229 228 225 225 227 219 222 227 230 236 240 245 251 255 265 276 288 297 304 310 313 311 306 299 296 294 292 290 288 286 282 280 280 280 280 281 283 286 287
227 224 227 230 233 232 235 235 229 228 229 224 228 232 227 223 227 232 233 236 239 246 252 254 266 279 287 293 299 303 306 305 302 299 296 294 290 287 285 285 286 285 284 283 284 285 287 288 289
224 223 225 229 231 230 232 236 229 233 231 231 235 235 225 223 229 236 238 239 241 247 253 260 269 277 283 287 293 297 298 295 290 289 289 289 289 288 287 287 288 289 287 287 288 289 290 289 289
220 219 222 228 231 229 231 235 233 233 232 234 241 240 230 219 226 235 239 240 242 249 256 262 269 277 283 285 286 287 289 291 291 289 290 291 293 294 293 291 291 291 292 292 292 292 291 290 290
216 217 219 224 229 229 230 231 236 232 232 233 240 242 228 217 224 235 240 241 247 256 261 264 270 278 283 283 280 279 279 285 290 293 292 293 295 296 294 292 292 292 292 291 292 291 292 292 292
213 214 215 221 225 227 228 229 237 234 232 235 239 236 222 218 225 233 241 248 257 263 267 271 274 277 282 283 280 282 283 288 292 294 294 295 296 295 293 292 291 289 289 291 293 294 295 296 296
211 211 212 218 224 225 228 229 236 234 232 233 234 231 222 223 229 236 242 251 262 267 271 275 277 275 277 281 283 286 289 292 294 293 293 295 295 296 296 295 294 294 296 297 297 298 298 298 297
212 209 210 217 226 226 230 231 236 236 228 227 228 225 222 225 231 239 246 256 264 268 273 275 273 272 274 277 282 288 293 296 296 296 297 298 298 299 300 302 302 302 301 301 302 302 301 301 300
209 206 207 216 225 227 232 229 233 237 229 226 226 224 223 225 233 242 250 259 266 271 274 267 267 270 273 276 280 286 292 295 296 296 297 298 300 302 304 304 304 305 305 305 304 304 303 302 303
204 203 208 218 224 228 232 227 231 235 230 226 227 225 222 224 232 242 254 262 267 267 264 264 266 267 270 275 280 285 290 293 294 297 299 301 302 302 303 303 304 304 303 303 302 302 301 301 302
202 201 210 218 220 224 226 225 231 234 231 226 228 227 223 225 233 246 259 267 263 259 262 266 268 272 276 281 287 293 298 299 299 298 299 299 301 301 301 301 301 300 300 301 302 304 306 305 305
200 201 210 215 221 223 226 228 227 234 231 228 228 227 225 229 237 248 260 265 260 260 264 269 273 277 282 287 292 296 297 296 295 296 296 296 296 295 296 298 300 302 304 306 309 310 309 308 307
198 201 209 213 220 221 224 225 217 231 230 228 228 227 230 237 245 253 262 263 261 264 269 274 279 282 285 288 292 294 294 294 294 294 294 294 295 298 301 304 306 307 308 309 310 310 308 308 307
196 199 205 210 215 216 219 226 220 226 229 229 231 232 235 240 249 258 264 265 267 270 274 278 280 283 285 289 292 293 293 294 294 295 296 298 300 302 306 308 308 309 309 309 309 308 307 307 307
195 197 202 207 209 211 215 226 227 225 227 230 233 237 241 245 250 255 259 262 265 268 272 277 282 285 289 292 293 292 292 293 296 298 299 301 303 305 307 307 308 308 307 307 308 309 308 308 308
190 197 203 209 209 213 216 226 229 228 229 231 234 238 241 245 249 255 260 264 268 271 276 282 286 289 292 294 294 293 294 296 298 299 302 303 305 306 307 307 306 307 308 309 310 309 309 309 309
193 202 208 209 210 219 216 224 232 230 231 233 233 237 242 247 254 259 264 269 273 277 282 285 288 291 294 295 294 295 297 299 300 303 305 305 306 307 307 307 307 309 309 309 310 310 310 311 312
202 208 213 214 214 222 220 226 236 237 232 233 237 242 246 251 256 262 267 272 277 281 284 287 290 293 294 294 295 297 299 301 303 305 307 307 307 307 307 307 308 309 308 309 310 311 312 312 313
207 213 219 221 221 223 225 230 237 244 242 239 242 247 252 255 260 265 271 276 280 284 288 291 293 294 295 297 298 301 302 304 306 307 307 307 307 306 307 308 308 308 309 310 312 312 312 313 313
Height
5845 5848 5851 5854 5856 5856 5857 5857 5857 5859 5860 5863 5865 5866 5866 5866 5867 5868 5866 5864 5864 5864 5863 5862 5861 5859 5858 5857 5857 5856 5855 5854 5854 5855 5856 5856 5855 5855 5855 5854 5853 5853 5852 5851 5850 5850 5849 5847 5846
5843 5844 5848 5851 5852 5853 5853 5852 5853 5856 5858 5860 5862 5863 5862 5862 5862 5862 5861 5861 5862 5862 5862 5861 5860 5858 5857 5856 5854 5853 5852 5851 5851 5852 5853 5853 5853 5852 5852 5852 5851 5850 5849 5849 5847 5847 5846 5845 5844
5840 5841 5844 5846 5848 5849 5848 5848 5851 5854 5856 5857 5858 5859 5859 5858 5858 5858 5859 5859 5860 5860 5860 5859 5858 5857 5856 5854 5852 5851 5850 5850 5849 5849 5850 5851 5850 5850 5850 5850 5849 5847 5846 5845 5844 5844 5844 5843 5841
5836 5838 5840 5843 5843 5845 5844 5845 5848 5850 5853 5854 5855 5856 5856 5855 5855 5855 5856 5857 5858 5858 5858 5857 5855 5854 5854 5853 5851 5850 5849 5849 5848 5847 5848 5848 5848 5847 5847 5846 5845 5844 5843 5842 5841 5841 5840 5839 5837
5832 5834 5836 5838 5839 5840 5840 5841 5845 5848 5849 5851 5852 5853 5851 5851 5851 5853 5854 5854 5855 5855 5855 5854 5853 5852 5852 5851 5850 5848 5848 5847 5846 5845 5845 5845 5844 5844 5843 5842 5841 5841 5839 5839 5838 5837 5835 5834 5833
5827 5830 5832 5834 5836 5836 5836 5837 5842 5844 5845 5847 5848 5849 5847 5847 5848 5850 5851 5852 5852 5852 5852 5851 5851 5850 5849 5848 5847 5846 5845 5844 5844 5842 5841 5841 5840 5839 5839 5838 5837 5836 5835 5834 5833 5831 5830 5829 5828
5823 5826 5827 5829 5831 5832 5831 5834 5838 5840 5842 5843 5844 5844 5842 5844 5845 5847 5848 5849 5850 5850 5850 5849 5849 5848 5847 5846 5845 5843 5842 5841 5840 5839 5838 5837 5836 5835 5834 5834 5832 5831 5831 5830 5829 5827 5825 5824 5823
5817 5821 5823 5825 5827 5827 5828 5830 5834 5836 5837 5839 5840 5839 5840 5841 5842 5844 5845 5845 5847 5848 5848 5847 5847 5846 5845 5844 5842 5841 5839 5838 5837 5835 5834 5833 5832 5831 5830 5830 5829 5828 5827 5826 5824 5822 5821 5819 5817
5810 5816 5819 5822 5822 5822 5824 5827 5829 5831 5833 5834 5835 5836 5837 5838 5839 5840 5841 5842 5844 5845 5845 5844 5845 5844 5842 5841 5839 5838 5836 5835 5833 5831 5830 5828 5828 5827 5826 5825 5824 5823 5822 5820 5819 5817 5815 5812 5810
5803 5809 5815 5818 5816 5816 5820 5823 5826 5828 5829 5830 5831 5832 5833 5835 5836 5837 5838 5839 5840 5841 5842 5842 5842 5841 5839 5837 5836 5835 5834 5831 5829 5827 5825 5824 5823 5822 5821 5820 5819 5818 5816 5814 5812 5810 5807 5805 5803
5796 5805 5810 5811 5810 5812 5815 5818 5822 5824 5825 5826 5827 5828 5829 5831 5832 5833 5834 5835 5837 5838 5838 5839 5838 5838 5836 5835 5833 5832 5830 5827 5825 5822 5821 5820 5818 5818 5817 5815 5813 5811 5809 5807 5804 5801 5799 5796 5793
5791 5800 5803 5805 5804 5807 5810 5814 5818 5820 5822 5822 5823 5823 5824 5826 5828 5829 5830 5832 5833 5834 5835 5835 5835 5834 5832 5831 5829 5828 5826 5824 5821 5819 5817 5815 5814 5813 5811 5809 5806 5804 5802 5799 5796 5793 5790 5787 5784
5785 5792 5797 5797 5798 5803 5806 5809 5813 5818 5815 5815 5817 5818 5820 5822 5824 5826 5826 5827 5829 5831 5832 5832 5832 5830 5828 5827 5825 5824 5822 5820 5817 5815 5813 5811 5809 5807 5804 5802 5799 5796 5793 5791 5787 5783 5780 5778 5775
5779 5785 5789 5789 5792 5798 5803 5804 5808 5809 5809 5811 5812 5814 5816 5819 5821 5822 5823 5824 5826 5827 5828 5828 5827 5825 5824 5822 5821 5819 5818 5816 5813 5811 5809 5806 5803 5801 5798 5795 5792 5789 5785 5781 5778 5776 5774 5771 5767
5769 5775 5780 5783 5788 5793 5797 5800 5802 5802 5806 5806 5808 5810 5812 5815 5817 5818 5819 5821 5822 5824 5824 5823 5822 5820 5818 5817 5816 5815 5813 5810 5808 5805 5803 5801 5797 5794 5790 5788 5784 5780 5777 5774 5771 5768 5766 5763 5759
5758 5766 5772 5780 5784 5787 5792 5796 5794 5798 5801 5803 5805 5806 5808 5811 5813 5815 5816 5817 5818 5819 5818 5818 5816 5814 5812 5811 5810 5808 5807 5804 5802 5799 5796 5792 5790 5786 5783 5780 5777 5773 5770 5767 5764 5760 5757 5754 5750
5748 5757 5767 5774 5778 5780 5786 5789 5789 5792 5796 5799 5801 5802 5805 5807 5809 5811 5811 5812 5813 5813 5813 5812 5810 5808 5807 5805 5803 5802 5800 5797 5794 5791 5788 5784 5781 5778 5775 5773 5770 5767 5764 5760 5756 5752 5748 5744 5741
5739 5751 5762 5768 5771 5776 5779 5783 5785 5788 5791 5794 5796 5798 5801 5803 5805 5805 5806 5807 5807 5807 5806 5806 5804 5803 5801 5799 5797 5796 5794 5791 5787 5784 5780 5776 5774 5771 5768 5766 5763 5760 5756 5753 5748 5744 5740 5736 5732
5737 5751 5759 5763 5764 5771 5774 5779 5781 5782 5786 5789 5792 5793 5795 5797 5798 5800 5801 5802 5801 5801 5801 5800 5798 5796 5795 5793 5791 5789 5787 5784 5780 5777 5773 5770 5767 5764 5761 5758 5755 5752 5748 5743 5739 5735 5731 5726 5721
5733 5743 5751 5754 5759 5766 5769 5775 5776 5777 5781 5784 5786 5788 5790 5792 5793 5794 5795 5795 5795 5795 5795 5794 5792 5790 5789 5786 5784 5782 5780 5777 5774 5770 5767 5764 5760 5757 5753 5750 5747 5743 5738 5734 5729 5724 5720 5715 5709
5725 5737 5744 5749 5756 5760 5765 5770 5771 5772 5776 5779 5781 5783 5785 5786 5787 5788 5789 5789 5789 5789 5789 5788 5786 5784 5781 5779 5777 5774 5772 5770 5767 5764 5760 5757 5753 5749 5746 5741 5737 5733 5728 5724 5719 5713 5708 5703 5696
5721 5731 5737 5743 5750 5754 5760 5764 5766 5767 5770 5773 5775 5778 5780 5781 5782 5782 5782 5782 5783 5783 5783 5782 5780 5778 5775 5773 5770 5768 5765 5762 5759 5756 5752 5748 5744 5740 5736 5732 5727 5723 5718 5713 5707 5700 5693 5686 5679
5717 5725 5731 5738 5744 5750 5754 5759 5762 5760 5764 5768 5771 5774 5775 5776 5777 5777 5776 5776 5776 5777 5777 5775 5774 5772 5770 5767 5764 5761 5758 5754 5751 5747 5744 5740 5735 5731 5727 5723 5718 5712 5706 5700 5692 5685 5677 5669 5661
5710 5718 5725 5733 5739 5745 5748 5752 5757 5755 5758 5761 5765 5768 5770 5771 5771 5771 5771 5770 5771 5772 5771 5770 5768 5766 5763 5760 5757 5754 5751 5747 5743 5739 5735 5731 5727 5722 5717 5712 5707 5701 5694 5687 5678 5670 5662 5653 5644
5704 5713 5722 5729 5733 5740 5743 5746 5751 5750 5752 5756 5760 5762 5764 5765 5765 5765 5765 5765 5766 5766 5766 5765 5762 5759 5756 5753 5750 5746 5742 5739 5735 5730 5726 5722 5717 5712 5706 5701 5694 5688 5681 5673 5664 5656 5646 5636 5625
5701 5711 5719 5724 5731 5736 5739 5741 5744 5746 5747 5750 5754 5757 5759 5760 5759 5758 5759 5759 5759 5759 5758 5757 5755 5752 5749 5745 5742 5738 5734 5730 5726 5722 5717 5713 5708 5702 5695 5689 5682 5675 5667 5659 5649 5639 5628 5617 5605
5697 5707 5714 5721 5728 5732 5735 5737 5739 5740 5742 5745 5749 5751 5752 5753 5752 5752 5752 5753 5752 5752 5750 5749 5747 5744 5741 5738 5734 5730 5726 5722 5718 5713 5708 5703 5696 5690 5683 5676 5668 5660 5651 5641 5630 5619 5608 5595 5582
5697 5705 5711 5717 5723 5726 5730 5732 5733 5735 5737 5740 5743 5745 5746 5746 5746 5746 5746 5746 5745 5744 5743 5741 5739 5736 5733 5729 5726 5721 5718 5713 5708 5703 5697 5690 5683 5676 5668 5661 5652 5643 5633 5623 5612 5600 5587 5574 5560
5694 5702 5708 5714 5720 5723 5727 5730 5728 5730 5732 5735 5737 5738 5739 5740 5739 5739 5739 5739 5738 5737 5735 5733 5730 5727 5724 5721 5717 5713 5709 5703 5698 5691 5684 5677 5669 5662 5654 5645 5636 5626 5616 5605 5593 5580 5566 5554 5541
5691 5700 5706 5711 5715 5719 5722 5727 5724 5724 5727 5728 5730 5731 5732 5732 5732 5732 5732 5732 5731 5729 5727 5725 5722 5719 5716 5712 5708 5703 5698 5692 5685 5679 5671 5664 5656 5647 5638 5629 5619 5608 5597 5585 5573 5561 5548 5534 5520